CZ-3B DEB, 40187

Orbit data source: Space-Track

CZ-3B DEB, 40187 is space debris in HEO originally from a launch on Mon, 19 Dec 2011 UTC launched from the Xichang Space Center, China (XSC). Debris objects in space refer to the collection of defunct objects orbiting the Earth. Examples of debris include non-operational satellites, rocket bodies, and fragments generated from explosions, collisions, or faulty payload assembly.

Loading next visibility...
Identifier
40187, 2011-077L
Orbit
HEO
Country
Flag of CNCN / PRC
Related business
Manufacturer
CALT
Mission
Spacecraft
Bus & Motor
Unknown
Mass
Unknown
Launch date (UTC)
2011-12-19 (14 years ago)
Launch vehicle
Unknown
Launch site
Xichang Space Center, China (XSC)
Object type
Payload
Rocket body
Debris
Shape & HBR
Unknown shape, 0.4 m
Radar Cross Section
Medium (>0.1 m² and <1 m²)

Expand to show TLE details & history
Last TLE update: 1 week ago

TLE from 1 week ago
0 CZ-3B DEB
1 40187U 11077L   25329.73930993  .00000058  00000-0  71024-3 0  9990
2 40187  26.2819  47.8818 7371566 309.5366   5.9413  1.90942562 90721
Epoch: 2025-11-25T17:44Z
TLE epoch observation values (Epoch: 2025-11-25T17:44:36.377Z)
Latitude
0.00178°
Longitude
76.75788°
Altitude
2,179.734 km
Speed
8.867 km/s
True Right ascension
03h 11m 19s
True Declination
0° 00' 06"
Sunlit
Object was in full shadow at epoch
Visualization orbit readout
Latitude
Unknown
Longitude
Unknown
Altitude
Unknown
Speed
Unknown
Apparent Right ascension
Unknown
Apparent Declination
Unknown
Sunlit
N/A
Visualization observer readout
Local Sidereal Time
13:14:42
Azimuth
Unknown
Elevation
Unknown
Doppler factor
Unknown
Orbital elements
Apogee altitude
41,304.912 km
Perigee altitude
836.627 km
Semi-major axis
27,448.906 km
Eccentricity
0.73716
Inclination
26.2819°
RAAN
47.8818°
Arg. of periapsis
309.5366°
True anomaly
51.48843°
Mean anomaly
5.9413°
Eccentric anomaly
21.24751°
Mean motion
0.47726 °/min
Orbital period
754.3 mins
BSTAR
0.00071024
Loading maneuver chart data...
Computing Atmospheric mass density...
Loading historical data...
Loading historical data...
Loading historical data...
Loading historical data...
Loading historical data...
Loading historical data...
Loading historical data...

Documentation

Showing up to 5 results
|